Location: Gugi
(45.4667°N, 11.1000°E)
Time: 00:56:48
(UTC+00:00)

Cosmos 2263 Rocket - Pass Details

Date: 26 February 2020
Orbit: 822 x 850 km, 71.0° (Epoch: 01 April)

Event Time Altitude Azimuth Distance (km) Brightness Sun altitude
Rises 19:10:27 0° 343° (NNW) 3,414 5.7 -24.0°
Reaches altitude 10° 19:15:36 10° 23° (NNE) 2,481 4.5 -24.8°
Enters shadow 19:15:59 10° 27° (NNE) 2,462 4.5 -24.9°
